This is the latest recevied weather packets stored in our database for station/object HOWARD. If no packets are shown the sender has not sent any weather packets the latest 1 day(s).
| Time | Temp. | Humidity | Pressure | Rain* | Wind** | Luminosity | Snow |
|---|---|---|---|---|---|---|---|
| 1836274652 | 13.89° C | 46% | 1018.6 hPa | 0 mm | 0 m/s | - | - |
| 1836274502 | 15.56° C | 43% | 1018.6 hPa | 0 mm | 0 m/s | - | - |
| 1836274052 | 14.44° C | 47% | 1018.5 hPa | 0 mm | 0 m/s | - | - |
| 1778048509 | 3.89° C | 57% | 1012.4 hPa | 0 mm | 1.79 m/s, 342° | - | - |
| 1778047909 | 4.44° C | 63% | 1012.3 hPa | 0 mm | 1.79 m/s, 329° | - | - |
| 1778047309 | 4.44° C | 66% | 1012.2 hPa | 0 mm | 2.24 m/s, 326° | - | - |
| 1778046709 | 4.44° C | 65% | 1012 hPa | 0 mm | 3.13 m/s, 320° | - | - |
| 1778046109 | 4.44° C | 65% | 1012.2 hPa | 0 mm | 1.79 m/s, 332° | - | - |
| 1778045509 | 3.89° C | 65% | 1012.2 hPa | 0 mm | 3.13 m/s, 331° | - | - |
| 1778044909 | 3.89° C | 69% | 1012.1 hPa | 0 mm | 1.79 m/s, 333° | - | - |
| 1778044309 | 3.89° C | 69% | 1012 hPa | 0 mm | 2.68 m/s, 336° | - | - |
| 1778043709 | 4.44° C | 68% | 1012.2 hPa | 0 mm | 1.79 m/s, 327° | - | - |
| 1778043109 | 3.89° C | 71% | 1011.8 hPa | 0 mm | 1.79 m/s, 346° | - | - |
| 1778042509 | 4.44° C | 70% | 1011.8 hPa | 0 mm | 3.13 m/s, 318° | - | - |
| 1778041910 | 4.44° C | 71% | 1011.8 hPa | 0 mm | 3.58 m/s, 331° | - | - |
| 1778041309 | 4.44° C | 72% | 1011.9 hPa | 0 mm | 3.13 m/s, 313° | - | - |
| 1778040711 | 3.89° C | 75% | 1011.7 hPa | 0 mm | 2.68 m/s, 313° | - | - |
| 1778040109 | 3.89° C | 75% | 1011.6 hPa | 0 mm | 2.68 m/s, 306° | - | - |
| 1778039509 | 4.44° C | 75% | 1011.4 hPa | 0 mm | 1.79 m/s, 338° | - | - |
| 1778038908 | 4.44° C | 76% | 1011.3 hPa | 0 mm | 4.47 m/s, 345° | - | - |
| 1778038342 | 4.44° C | 76% | 1011.3 hPa | 0 mm | 4.02 m/s, 338° | - | - |
| 1778038309 | 4.44° C | 76% | 1011.3 hPa | 0 mm | 4.02 m/s, 338° | - | - |
| 1778037709 | 5° C | 75% | 1011.2 hPa | 0 mm | 3.58 m/s, 338° | - | - |
| 1778037108 | 5° C | 75% | 1011.1 hPa | 0 mm | 4.47 m/s, 341° | - | - |
| 1778036509 | 5° C | 75% | 1011 hPa | 0 mm | 2.68 m/s, 335° | - | - |
* Rain latest hour (hover to see other rain measurements)
** Current wind speed in m/s (hover to see current wind gust speed)